This demonstration page uses our WeatherBlox Daily Observations layout. Learn more.

Left ArrowRight Arrow

34.02893, -84.19858

Hourly Observations for September 30, 2022

Temp ( °F °C ) Dew Point ( °F °C ) Humidity (%) Winds ( mph kmh ) Pressure ( in mb ) Visibility ( mi km ) Precip ( " mm )
12:53 am 00:53 Mostly Cloudy 61 16.1 43 6.1 51 51 undefined N/A 30.03 1017 10 16 0.00 0.00
1:53 am 01:53 Clear 60 15.6 44 6.7 55 55 VRB 7 11 30.01 1016 10 16 0.00 0.00
2:53 am 02:53 Mostly Cloudy 59 15 43 6.1 55 55 NNE 9 15 29.98 1015 10 16 0.00 0.00
3:53 am 03:53 Cloudy 59 15 42 5.6 53 53 VRB 5 7 29.97 1015 10 16 0.00 0.00
4:53 am 04:53 Cloudy 58 14.4 42 5.6 55 55 NNE 10 17 29.97 1015 10 16 0.00 0.00
5:53 am 05:53 Cloudy 59 15 43 6.1 55 55 NNE 8 13 29.98 1015 10 16 0.00 0.00
6:53 am 06:53 Mostly Cloudy 58 14.4 43 6.1 57 57 NNE 12 19 29.98 1015 10 16 0.00 0.00
7:53 am 07:53 Cloudy 59 15 42 5.6 53 53 NNE 9 15 29.98 1015 10 16 0.00 0.00
8:53 am 08:53 Cloudy 60 15.6 43 6.1 53 53 N 9 15 29.98 1015 10 16 0.00 0.00
9:53 am 09:53 Cloudy 63 17.2 43 6.1 48 48 NNW 8 13 29.97 1015 10 16 0.00 0.00
12:53 pm 12:53 Cloudy 69 20.6 53 11.7 57 57 undefined N/A 29.93 1014 10 16 0.00 0.00
1:53 pm 13:53 Cloudy 68 20 54 12.2 61 61 N 9 15 29.91 1013 9 14 0.01 0.13
2:53 pm 14:53 Cloudy 72 22.2 53 11.7 51 51 N 8 13 29.87 1012 10 16 0.00 0.00
3:53 pm 15:53 Cloudy 74 23.3 55 12.8 52 52 VRB 3 6 29.85 1011 10 16 0.00 0.00
4:53 pm 16:53 Mostly Sunny 74 23.3 53 11.7 48 48 W 5 7 29.83 1010 10 16 0.00 0.00
5:53 pm 17:53 Sunny 75 23.9 52 11.1 45 45 NNW 12 19 29.81 1010 10 16 0.00 0.00
6:53 pm 18:53 Mostly Sunny 71 21.7 50 10 47 47 NW 13 20 29.81 1009 10 16 0.00 0.00
6:58 pm 18:58 Sunny 71 21.7 50 10 47 47 NW 9 15 29.81 1009 10 16 0.00 0.00
7:53 pm 19:53 Clear 68 20 48 8.9 49 49 NW 10 17 29.80 1009 10 16 0.00 0.00
8:53 pm 20:53 Clear 65 18.3 46 7.8 50 50 NNW 8 13 29.82 1010 10 16 0.00 0.00
9:53 pm 21:53 Clear 64 17.8 44 6.7 48 48 NW 10 17 29.81 1009 10 16 0.00 0.00
10:53 pm 22:53 Clear 62 16.7 44 6.7 52 52 NNW 13 20 29.80 1009 10 16 0.00 0.00
11:53 pm 23:53 Clear 61 16.1 43 6.1 51 51 NNW 7 11 29.80 1009 10 16 0.00 0.00

Powered by AerisWeather